EW4725 Weather Reports


Display with metric or nautical units.
time (UTC)temp
F
wind
direction
speed
MPH
gust
MPH
rain 1hr
in
rain 24hr
in
rain mn
in
humidity
%
barometer
mb
20260503033816 60 283 4.0 5.0 0.00 0.00 0.00 85 1011.7
20260503033316 60 283 4.0 5.0 0.00 0.00 0.00 85 1011.6
20260503032816 61 283 3.0 6.0 0.00 0.00 0.00 84 1011.5
20260503032316 61 260 2.0 4.0 0.00 0.00 0.00 84 1011.4
20260503031816 61 305 3.0 4.0 0.00 0.00 0.00 84 1011.3
20260503031316 61 305 3.0 5.0 0.00 0.00 0.00 84 1011.3
20260503030816 61 283 2.0 3.0 0.00 0.00 0.00 83 1011.2
20260503030316 61 260 3.0 4.0 0.00 0.00 0.00 83 1011.3
20260503025836 61 260 3.0 4.0 0.00 0.00 0.00 83 1011.2
20260503025316 61 283 5.0 7.0 0.00 0.00 0.00 82 1011.1
20260503024816 62 283 4.0 5.0 0.00 0.00 0.00 82 1010.9
20260503024316 62 283 5.0 7.0 0.00 0.00 0.00 81 1010.8
20260503023816 62 283 5.0 7.0 0.00 0.00 0.00 81 1010.8
20260503023316 62 260 3.0 5.0 0.00 0.00 0.00 80 1010.7
20260503022836 63 283 4.0 6.0 0.00 0.00 0.00 80 1010.6
20260503022316 63 260 4.0 6.0 0.00 0.00 0.00 79 1010.6
20260503021816 63 260 7.0 10.0 0.00 0.00 0.00 78 1010.5
20260503021316 64 283 5.0 7.0 0.00 0.00 0.00 77 1010.5
20260503020816 64 260 4.0 6.0 0.00 0.00 0.00 76 1010.4
20260503020336 65 260 6.0 10.0 0.00 0.00 0.00 74 1010.5
20260503015816 66 305 4.0 5.0 0.00 0.00 0.00 73 1010.4
20260503015336 66 283 4.0 6.0 0.00 0.00 0.00 72 1010.3
20260503014816 66 305 3.0 6.0 0.00 0.00 0.00 72 1010.4
20260503014336 67 283 3.0 5.0 0.00 0.00 0.00 72 1010.4
20260503013816 66 260 3.0 6.0 0.00 0.00 0.00 72 1010.4
20260503013316 66 283 4.0 5.0 0.00 0.00 0.00 71 1010.5
20260503012816 67 283 6.0 8.0 0.00 0.00 0.00 71 1010.4
20260503012316 67 283 5.0 7.0 0.00 0.00 0.00 70 1010.4
20260503011816 67 260 2.0 6.0 0.00 0.00 0.00 71 1010.3
20260503011316 67 305 4.0 6.0 0.00 0.00 0.00 70 1010.5
20260503010856 67 283 4.0 8.0 0.00 0.00 0.00 70 1010.5
20260503010317 67 305 4.0 7.0 0.00 0.00 0.00 70 1010.5
20260503005836 67 283 5.0 6.0 0.00 0.00 0.00 69 1010.4
20260503005336 67 260 3.0 4.0 0.00 0.00 0.00 70 1010.4
20260503004816 67 305 3.0 5.0 0.00 0.00 0.00 70 1010.3
20260503004336 67 283 3.0 4.0 0.00 0.00 0.00 70 1010.4
20260503003816 67 283 5.0 7.0 0.00 0.00 0.00 70 1010.3
20260503003316 67 283 5.0 7.0 0.00 0.00 0.00 70 1010.4
20260503002816 68 305 4.0 8.0 0.00 0.00 0.00 69 1010.3
20260503002316 67 260 2.0 4.0 0.00 0.00 0.00 70 1010.5
20260503001816 67 260 7.0 10.0 0.00 0.00 0.00 69 1010.6
20260503001336 67 283 4.0 5.0 0.00 0.00 0.00 69 1010.5
20260503000816 67 305 6.0 9.0 0.00 0.00 0.00 69 1010.5
20260503000318 67 283 7.0 9.0 0.00 0.00 0.00 70 1010.5
20260502235816 67 260 5.0 7.0 0.00 0.00 0.00 70 1010.4
20260502235336 67 260 6.0 10.0 0.00 0.00 0.00 70 1010.6
20260502234816 67 283 5.0 7.0 0.00 0.00 0.00 70 1010.6
20260502234316 67 283 6.0 8.0 0.00 0.00 0.00 70 1010.6
20260502233816 68 260 6.0 10.0 0.00 0.00 0.00 69 1010.7
20260502233316 67 283 4.0 6.0 0.00 0.00 0.00 70 1010.6
20260502232816 68 283 7.0 11.0 0.00 0.00 0.00 69 1010.7
20260502232316 68 260 5.0 7.0 0.00 0.00 0.00 69 1010.8
20260502231816 68 260 5.0 9.0 0.00 0.00 0.00 69 1010.8
20260502231316 68 283 6.0 9.0 0.00 0.00 0.00 69 1010.8
20260502230836 68 305 7.0 10.0 0.00 0.00 0.00 69 1010.9
20260502230315 68 283 6.0 9.0 0.00 0.00 0.00 69 1010.9
20260502225836 68 260 7.0 9.0 0.00 0.00 0.00 69 1010.9
20260502225316 68 283 7.0 10.0 0.00 0.00 0.00 69 1010.9
20260502224816 69 260 8.0 12.0 0.00 0.00 0.00 68 1011.2
20260502224315 68 305 2.0 3.0 0.00 0.00 0.00 70 1011.3
20260502223816 68 283 7.0 9.0 0.00 0.00 0.00 69 1011.4
20260502223316 69 283 7.0 10.0 0.00 0.00 0.00 68 1011.7
20260502222816 69 283 7.0 11.0 0.00 0.00 0.00 68 1011.6
20260502222316 69 283 7.0 10.0 0.00 0.00 0.00 67 1011.7
20260502221815 69 305 5.0 8.0 0.00 0.00 0.00 68 1011.9
20260502221316 70 283 8.0 13.0 0.00 0.00 0.00 67 1011.8
20260502220816 70 260 7.0 9.0 0.00 0.00 0.00 67 1011.9
20260502220316 70 260 6.0 10.0 0.00 0.00 0.00 68 1012.0
20260502215816 70 283 5.0 7.0 0.00 0.00 0.00 66 1012.2
20260502215315 70 283 5.0 13.0 0.00 0.00 0.00 69 1012.2
20260502214815 70 328 7.0 11.0 0.00 0.00 0.00 67 1012.3
20260502214316 70 283 7.0 12.0 0.00 0.00 0.00 68 1012.3
20260502213836 71 283 5.0 9.0 0.00 0.00 0.00 67 1012.4
20260502213336 71 305 5.0 7.0 0.00 0.00 0.00 66 1012.5
20260502212816 71 260 4.0 6.0 0.00 0.00 0.00 66 1012.5
20260502212315 72 283 4.0 5.0 0.00 0.00 0.00 65 1012.6
20260502211816 72 283 4.0 5.0 0.00 0.00 0.00 66 1012.6
20260502211315 72 260 4.0 7.0 0.00 0.00 0.00 65 1012.7
20260502210815 72 215 3.0 6.0 0.00 0.00 0.00 66 1012.7
20260502210315 72 283 2.0 4.0 0.00 0.00 0.00 68 1012.7
20260502205816 71 238 2.0 5.0 0.00 0.00 0.00 68 1012.7
20260502205315 71 170 6.0 8.0 0.00 0.00 0.00 68 1012.7
20260502204835 70 148 3.0 6.0 0.00 0.00 0.00 68 1012.8
20260502204316 71 260 8.0 11.0 0.00 0.00 0.00 67 1012.8
20260502203816 71 283 5.0 7.0 0.00 0.00 0.00 67 1012.8
20260502203316 71 215 4.0 7.0 0.00 0.00 0.00 67 1012.8
20260502202836 71 238 3.0 6.0 0.00 0.00 0.00 69 1012.8
20260502202336 71 148 2.0 6.0 0.00 0.00 0.00 67 1012.8
20260502201815 71 215 4.0 5.0 0.00 0.00 0.00 67 1013.0
20260502201316 71 260 3.0 4.0 0.00 0.00 0.00 68 1013.2
20260502200815 70 260 4.0 6.0 0.00 0.00 0.00 69 1013.0
20260502200335 70 260 2.0 5.0 0.00 0.00 0.00 69 1013.2
20260502195816 70 215 3.0 4.0 0.00 0.00 0.00 70 1013.2
20260502195315 70 238 3.0 4.0 0.00 0.00 0.00 71 1013.3
20260502194817 70 238 2.0 4.0 0.00 0.00 0.00 71 1013.4
20260502194315 69 148 3.0 6.0 0.00 0.00 0.00 73 1013.5
20260502193815 68 305 4.0 5.0 0.00 0.00 0.00 74 1013.5
20260502193316 68 283 3.0 5.0 0.00 0.00 0.00 74 1013.7
20260502192816 68 238 4.0 9.0 0.00 0.00 0.00 74 1013.5
20260502192315 68 283 3.0 5.0 0.00 0.00 0.00 74 1013.6
20260502191815 67 125 1.0 2.0 0.00 0.00 0.00 75 1013.8
20260502191315 67 260 3.0 5.0 0.00 0.00 0.00 76 1013.9
20260502190815 67 283 3.0 4.0 0.00 0.00 0.00 76 1014.1
20260502190315 67 0.0 2.0 0.00 0.00 0.00 76 1014.2
20260502185815 67 215 2.0 3.0 0.00 0.00 0.00 78 1014.3
20260502185335 66 305 1.0 3.0 0.00 0.00 0.00 78 1014.3
20260502184815 65 215 1.0 2.0 0.00 0.00 0.00 79 1014.3
20260502184315 65 260 2.0 3.0 0.00 0.00 0.00 80 1014.3
20260502183815 65 238 2.0 5.0 0.00 0.00 0.00 80 1014.3
20260502183315 65 260 2.0 4.0 0.00 0.00 0.00 80 1014.4
20260502182315 64 125 1.0 2.0 0.00 0.00 0.00 82 1014.5
20260502181815 64 148 1.0 2.0 0.00 0.00 0.00 82 1014.4
20260502181335 64 125 2.0 3.0 0.00 0.00 0.00 82 1014.4
20260502180835 64 80 1.0 2.0 0.00 0.00 0.00 82 1014.4
20260502180315 64 58 2.0 3.0 0.00 0.00 0.00 82 1014.5
20260502170337 62 260 1.0 2.0 0.00 0.00 0.00 87 1015.0
20260502164317 61 0.0 1.0 0.00 0.00 0.00 88 1015.0
20260502163817 61 0.0 0.0 0.00 0.00 0.00 89 1014.9
20260502163337 61 0.0 0.0 0.00 0.00 0.00 89 1015.0
20260502162815 61 148 1.0 2.0 0.00 0.00 0.00 89 1015.1
20260502162317 61 0.0 1.0 0.00 0.00 0.00 89 1015.1
20260502161817 61 215 1.0 2.0 0.00 0.00 0.00 89 1015.1
20260502161317 61 0.0 0.0 0.00 0.00 0.00 89 1015.0
20260502160817 61 0.0 0.0 0.00 0.00 0.00 89 1015.1
20260502160317 61 148 1.0 2.0 0.00 0.00 0.00 89 1015.1
20260502152317 60 103 2.0 3.0 0.00 0.00 0.00 91 1014.9
20260502151817 60 125 2.0 2.0 0.00 0.00 0.00 91 1015.0
20260502151317 60 0.0 1.0 0.00 0.00 0.00 91 1014.8
20260502150817 60 125 1.0 1.0 0.00 0.00 0.00 91 1014.7
20260502150337 60 0.0 1.0 0.00 0.00 0.00 91 1014.6
20260502130317 59 170 1.0 1.0 0.00 0.00 0.00 91 1014.0
20260502123317 59 238 2.0 3.0 0.00 0.00 0.00 90 1013.7
20260502122816 59 170 1.0 2.0 0.00 0.00 0.00 90 1013.8
20260502122317 59 0.0 1.0 0.00 0.00 0.00 90 1013.8
20260502121816 59 283 1.0 2.0 0.00 0.00 0.00 90 1013.8
20260502121317 59 260 1.0 3.0 0.00 0.00 0.00 90 1013.7
20260502120837 59 0.0 1.0 0.00 0.00 0.00 91 1013.7
20260502120316 59 0.0 1.0 0.00 0.00 0.00 91 1013.7
20260502115817 59 0.0 0.0 0.00 0.00 0.00 91 1013.6
20260502115317 59 0.0 0.0 0.00 0.00 0.00 91 1013.6
20260502114816 59 0.0 1.0 0.00 0.00 0.00 91 1013.6
20260502114337 59 0.0 0.0 0.00 0.00 0.00 91 1013.5
20260502113837 59 0.0 0.0 0.00 0.00 0.00 91 1013.4
20260502113316 59 260 1.0 1.0 0.00 0.00 0.00 91 1013.4
20260502112836 59 0.0 1.0 0.00 0.00 0.00 91 1013.4
20260502112316 59 238 1.0 1.0 0.00 0.00 0.00 91 1013.4
20260502111816 59 0.0 1.0 0.00 0.00 0.00 91 1013.3
20260502111316 59 0.0 1.0 0.00 0.00 0.00 91 1013.4
20260502110816 59 0.0 1.0 0.00 0.00 0.00 91 1013.5
20260502110316 59 0.0 0.0 0.00 0.00 0.00 91 1013.5
20260502105837 59 0.0 0.0 0.00 0.00 0.00 91 1013.5
20260502105317 59 0.0 1.0 0.00 0.00 0.00 91 1013.4
20260502104837 59 0.0 0.0 0.00 0.00 0.00 91 1013.3
20260502104437 59 0.0 1.0 0.00 0.00 0.00 91 1013.3
20260502103817 59 0.0 0.0 0.00 0.00 0.00 91 1013.2
20260502103317 59 260 1.0 2.0 0.00 0.00 0.00 91 1013.1
20260502102816 58 0.0 1.0 0.00 0.00 0.00 91 1013.2
20260502102316 58 283 2.0 3.0 0.00 0.00 0.00 92 1013.2
20260502101817 58 283 1.0 2.0 0.00 0.00 0.00 92 1013.2
20260502101317 58 0.0 1.0 0.00 0.00 0.00 92 1013.1
20260502100816 58 0.0 0.0 0.00 0.00 0.00 92 1013.2
20260502100316 58 0.0 0.0 0.00 0.00 0.00 92 1013.2
20260502091317 57 0.0 0.0 0.00 0.00 0.00 93 1013.3
20260502090816 57 0.0 0.0 0.00 0.00 0.00 93 1013.3
20260502090316 57 0.0 0.0 0.00 0.00 0.00 93 1013.4
20260502071316 59 305 1.0 1.0 0.00 0.00 0.00 90 1014.1
20260502070816 59 0.0 1.0 0.00 0.00 0.00 90 1014.2
20260502070336 59 0.0 1.0 0.00 0.00 0.00 90 1014.1
20260502065816 59 0.0 0.0 0.00 0.00 0.00 90 1014.1
20260502065317 59 305 1.0 1.0 0.00 0.00 0.00 90 1014.1
20260502064817 59 0.0 0.0 0.00 0.00 0.00 89 1014.1
20260502064317 59 0.0 1.0 0.00 0.00 0.00 89 1014.0
20260502063816 59 328 1.0 2.0 0.00 0.00 0.00 89 1014.0
20260502063317 59 305 1.0 2.0 0.00 0.00 0.00 89 1014.1
20260502062816 59 0.0 0.0 0.00 0.00 0.00 89 1014.1
20260502062316 59 0.0 0.0 0.00 0.00 0.00 89 1014.0
20260502061837 59 0.0 0.0 0.00 0.00 0.00 89 1013.9
20260502061317 59 0.0 1.0 0.00 0.00 0.00 89 1013.9
20260502060816 60 0.0 1.0 0.00 0.00 0.00 89 1013.9
20260502060316 60 305 1.0 2.0 0.00 0.00 0.00 89 1013.8
20260502055816 60 350 1.0 2.0 0.00 0.00 0.00 88 1013.8
20260502055317 60 13 1.0 2.0 0.00 0.00 0.00 88 1013.8
20260502054816 60 305 1.0 2.0 0.00 0.00 0.00 88 1013.8
20260502054337 60 305 1.0 2.0 0.00 0.00 0.00 88 1013.9
20260502053816 60 328 1.0 2.0 0.00 0.00 0.00 88 1013.9
20260502053316 60 0.0 1.0 0.00 0.00 0.00 88 1013.9
20260502052816 60 305 1.0 2.0 0.00 0.00 0.00 88 1013.9
20260502052316 60 0.0 1.0 0.00 0.00 0.00 88 1014.0
20260502051836 60 305 1.0 2.0 0.00 0.00 0.00 88 1013.9
20260502051316 60 260 3.0 4.0 0.00 0.00 0.00 88 1013.9
20260502050836 60 305 2.0 3.0 0.00 0.00 0.00 87 1014.0
20260502050317 60 283 3.0 5.0 0.00 0.00 0.00 87 1013.9
20260502045816 60 283 2.0 3.0 0.00 0.00 0.00 87 1013.8
20260502045316 61 283 3.0 4.0 0.00 0.00 0.00 87 1013.8
20260502044817 61 260 4.0 7.0 0.00 0.00 0.00 87 1013.8
20260502044316 61 283 1.0 2.0 0.00 0.00 0.00 87 1013.7
20260502043816 61 283 4.0 4.0 0.00 0.00 0.00 87 1013.6
20260502043316 61 238 3.0 5.0 0.00 0.00 0.00 87 1013.5
20260502042836 61 260 4.0 5.0 0.00 0.00 0.00 87 1013.5
20260502042316 61 283 4.0 5.0 0.00 0.00 0.00 86 1013.5
20260502041836 61 260 2.0 3.0 0.00 0.00 0.00 87 1013.5
20260502041336 61 283 3.0 4.0 0.00 0.00 0.00 86 1013.4
20260502040837 61 283 3.0 4.0 0.00 0.00 0.00 86 1013.4
20260502040316 61 283 4.0 7.0 0.00 0.00 0.00 86 1013.3
20260502035817 61 305 3.0 6.0 0.00 0.00 0.00 86 1013.2
20260502035316 61 283 4.0 6.0 0.00 0.00 0.00 86 1013.2
20260502034836 61 260 3.0 5.0 0.00 0.00 0.00 86 1013.1
20260502034317 61 305 4.0 7.0 0.00 0.00 0.00 86 1013.0